Location: Davidschlag
(48.4333°N, 14.2833°E)
Time: 08:15:29
(UTC+00:00)

STARLINK-1054 - Pass Details

Date: 27 February 2020
Orbit: 548 x 551 km, 53.0° (Epoch: 31 March)

Event Time Altitude Azimuth Distance (km) Brightness Sun altitude
Rises 17:25:01 0° 219° (SW) 2,705 7.9 -7.8°
Reaches altitude 10° 17:27:19 10° 212° (SSW) 1,815 6.8 -8.2°
Maximum altitude 17:31:12 41° 142° (SE) 810 4.2 -8.8°
Enters shadow 17:34:45 12° 74° (ENE) 1,698 5.5 -9.4°
